West Columbia, WV

6:20 AM EDT on August 26, 2016 (GMT -0400)
Point Pleasant

Weather History for K3I2 - January, 2013

Change the Weather History Date:

Thursday, January 3, 2013

  Actual Average (KHTS) Record (KHTS)
Temperature  
Mean Temperature 28 °F 34 °F  
Max Temperature 39 °F 42 °F 72 °F (1907)
Min Temperature 17 °F 26 °F -1 °F (1918)
Degree Days  
Heating Degree Days 37 31  
Month to date heating degree days 93  
Since 1 July heating degree days 1848  
Cooling Degree Days 0 0  
Month to date cooling degree days 0  
Year to date cooling degree days 0  
Moisture  
Dew Point 20 °F    
Average Humidity 75    
Maximum Humidity 93    
Minimum Humidity 52    
Precipitation  
Precipitation 0.00 in 0.10 in 2.42 in (1924)
Month to date precipitation 0.29  
Year to date precipitation 0.29  
Snow  
Snow 0.00 in - - ()
Month to date snowfall  
Since 1 September snowfall  
Snow Depth -    
Sea Level Pressure  
Sea Level Pressure 30.26 in    
Wind  
Wind Speed 1 mph (West)    
Max Wind Speed 12 mph    
Max Gust Speed -    
Visibility 10 miles    
Events      
T = Trace of Precipitation, MM = Missing Value Source: NWS Daily Summary

Daily Weather History Graph

Daily Weather History Graph

Search for Another Location

Airport or City:

Trip Planner

Search our weather history database for the weather conditions in past years. The results will help you decide how hot, cold, wet, or windy it might be!

Date:

Astronomy

Jan. 03, 2013 Rise Set
Actual Time 7:47 AM EST 5:19 PM EST
Civil Twilight 7:17 AM EST 5:48 PM EST
Nautical Twilight 6:44 AM EST 6:22 PM EST
Astronomical Twilight 6:11 AM EST 6:54 PM EST
Moon 11:49 PM EST (1/3) 11:01 AM EST (1/3)
Length of Visible Light 10h 31m
Length of Day
9h 31m
Waning Gibbous, 65% of the Moon is Illuminated
Jan 3
Waning Gibbous
Jan 4
Last Quarter
Jan 11
New
Jan 18
First Quarter
Jan 26
Full

Hourly Weather History & Observations

Time (EST) Temp. Windchill Dew Point Humidity Pressure Visibility Wind Dir Wind Speed Gust Speed Precip Events Conditions
12:15 AM 24.8 °F - 21.2 °F 86% 30.24 in 10.0 mi Calm Calm - N/A   Clear
12:35 AM 24.8 °F - 21.2 °F 86% 30.24 in 10.0 mi Calm Calm - N/A   Clear
12:55 AM 24.8 °F - 21.2 °F 86% 30.23 in 10.0 mi Calm Calm - N/A   Clear
1:15 AM 24.8 °F - 21.2 °F 86% 30.23 in 10.0 mi Calm Calm - N/A   Clear
1:35 AM 24.8 °F - 21.2 °F 86% 30.22 in 10.0 mi Calm Calm - N/A   Clear
2:15 AM 23.0 °F - 21.2 °F 93% 30.24 in 10.0 mi Calm Calm - N/A   Clear
2:35 AM 23.0 °F - 21.2 °F 93% 30.23 in 10.0 mi Calm Calm - N/A   Clear
2:55 AM 23.0 °F - 21.2 °F 93% 30.24 in 10.0 mi Calm Calm - N/A   Clear
3:15 AM 23.0 °F - 19.4 °F 86% 30.24 in 10.0 mi Calm Calm - N/A   Clear
3:35 AM 21.2 °F - 19.4 °F 93% 30.24 in 10.0 mi Calm Calm - N/A   Clear
3:55 AM 21.2 °F - 19.4 °F 93% 30.23 in 10.0 mi Calm Calm - N/A   Clear
4:15 AM 21.2 °F - 19.4 °F 93% 30.24 in 10.0 mi Calm Calm - N/A   Clear
4:35 AM 19.4 °F - 17.6 °F 93% 30.23 in 10.0 mi Calm Calm - N/A   Clear
4:55 AM 19.4 °F - 17.6 °F 93% 30.23 in 10.0 mi Calm Calm - N/A   Clear
5:15 AM 19.4 °F - 17.6 °F 93% 30.23 in 10.0 mi Calm Calm - N/A   Clear
5:35 AM 19.4 °F - 17.6 °F 93% 30.23 in 10.0 mi Calm Calm - N/A   Clear
5:55 AM 19.4 °F - 17.6 °F 93% 30.23 in 10.0 mi Calm Calm - N/A   Clear
6:15 AM 17.6 °F - 15.8 °F 93% 30.24 in 10.0 mi Calm Calm - N/A   Clear
6:35 AM 17.6 °F - 15.8 °F 93% 30.24 in 10.0 mi Calm Calm - N/A   Clear
6:55 AM 17.6 °F - 15.8 °F 93% 30.26 in 10.0 mi Calm Calm - N/A   Clear
7:15 AM 19.4 °F - 17.6 °F 93% 30.25 in 10.0 mi Calm Calm - N/A   Clear
7:35 AM 19.4 °F - 15.8 °F 86% 30.26 in 10.0 mi Calm Calm - N/A   Clear
7:55 AM 19.4 °F - 17.6 °F 93% 30.26 in 10.0 mi Calm Calm - N/A   Clear
8:15 AM 19.4 °F - 17.6 °F 93% 30.27 in 10.0 mi Calm Calm - N/A   Clear
8:35 AM 19.4 °F - 17.6 °F 93% 30.27 in 10.0 mi Calm Calm - N/A   Clear
8:55 AM 19.4 °F - 17.6 °F 93% 30.28 in 10.0 mi Calm Calm - N/A   Clear
9:15 AM 21.2 °F - 17.6 °F 86% 30.28 in 10.0 mi Calm Calm - N/A   Clear
9:35 AM 21.2 °F - 19.4 °F 93% 30.28 in 10.0 mi Calm Calm - N/A   Clear
9:55 AM 24.8 °F - 21.2 °F 86% 30.29 in 7.0 mi Calm Calm - N/A   Clear
1:55 PM 37.4 °F 32.8 °F 23.0 °F 56% 30.22 in 10.0 mi WSW 5.8 mph - N/A   Unknown
2:15 PM 37.4 °F 32.1 °F 23.0 °F 56% 30.22 in 10.0 mi West 6.9 mph - N/A   Clear
2:35 PM 39.2 °F 33.6 °F 23.0 °F 52% 30.21 in 10.0 mi WSW 8.1 mph - N/A   Clear
2:55 PM 39.2 °F 34.2 °F 23.0 °F 52% 30.21 in 10.0 mi WSW 6.9 mph - N/A   Clear
3:15 PM 39.2 °F 33.6 °F 23.0 °F 52% 30.22 in 10.0 mi WSW 8.1 mph - N/A   Clear
3:35 PM 39.2 °F 32.0 °F 23.0 °F 52% 30.22 in 10.0 mi SW 11.5 mph - N/A   Clear
3:55 PM 37.4 °F 33.8 °F 21.2 °F 52% 30.23 in 10.0 mi WSW 4.6 mph - N/A   Clear
4:15 PM 37.4 °F 32.8 °F 21.2 °F 52% 30.24 in 10.0 mi WSW 5.8 mph - N/A   Clear
4:35 PM 37.4 °F 30.8 °F 21.2 °F 52% 30.24 in 10.0 mi WSW 9.2 mph - N/A   Clear
4:55 PM 35.6 °F 29.9 °F 21.2 °F 56% 30.24 in 10.0 mi West 6.9 mph - N/A   Clear
5:15 PM 35.6 °F 31.7 °F 21.2 °F 56% 30.24 in 10.0 mi West 4.6 mph - N/A   Clear
5:35 PM 33.8 °F 30.8 °F 21.2 °F 60% 30.25 in 10.0 mi West 3.5 mph - N/A   Clear
5:55 PM 33.8 °F 28.6 °F 21.2 °F 60% 30.26 in 10.0 mi West 5.8 mph - N/A   Clear
6:15 PM 33.8 °F 30.8 °F 19.4 °F 56% 30.27 in 10.0 mi WNW 3.5 mph - N/A   Clear
6:35 PM 32.0 °F - 19.4 °F 60% 30.27 in 10.0 mi Calm Calm - N/A   Clear
6:55 PM 32.0 °F 28.7 °F 19.4 °F 60% 30.27 in 10.0 mi West 3.5 mph - N/A   Scattered Clouds
7:15 PM 32.0 °F - 19.4 °F 60% 30.27 in 10.0 mi Calm Calm - N/A   Scattered Clouds
7:35 PM 32.0 °F - 21.2 °F 64% 30.28 in 10.0 mi Calm Calm - N/A   Mostly Cloudy
7:55 PM 32.0 °F - 21.2 °F 64% 30.29 in 10.0 mi Calm Calm - N/A   Overcast
8:15 PM 32.0 °F 27.5 °F 21.2 °F 64% 30.30 in 10.0 mi West 4.6 mph - N/A   Overcast
8:35 PM 32.0 °F 28.7 °F 21.2 °F 64% 30.30 in 10.0 mi West 3.5 mph - N/A   Overcast
8:55 PM 32.0 °F 27.5 °F 21.2 °F 64% 30.30 in 10.0 mi WNW 4.6 mph - N/A   Overcast
9:15 PM 32.0 °F 28.7 °F 21.2 °F 64% 30.31 in 10.0 mi West 3.5 mph - N/A   Overcast
9:35 PM 32.0 °F - 21.2 °F 64% 30.31 in 10.0 mi Calm Calm - N/A   Overcast
9:55 PM 32.0 °F 28.7 °F 21.2 °F 64% 30.32 in 10.0 mi West 3.5 mph - N/A   Overcast
10:15 PM 32.0 °F 27.5 °F 21.2 °F 64% 30.32 in 10.0 mi West 4.6 mph - N/A   Overcast
10:35 PM 32.0 °F 28.7 °F 21.2 °F 64% 30.32 in 10.0 mi West 3.5 mph - N/A   Overcast
10:55 PM 32.0 °F 28.7 °F 21.2 °F 64% 30.32 in 10.0 mi West 3.5 mph - N/A   Overcast
11:15 PM 32.0 °F 27.5 °F 21.2 °F 64% 30.32 in 10.0 mi West 4.6 mph - N/A   Overcast
11:35 PM 32.0 °F 28.7 °F 21.2 °F 64% 30.32 in 10.0 mi West 3.5 mph - N/A   Overcast
11:55 PM 32.0 °F 28.7 °F 21.2 °F 64% 30.31 in 10.0 mi WSW 3.5 mph - N/A   Overcast